Regional Weather Roundup
Issued by NWS Little Rock, AR

Home | Current Version | Previous Version | Text Only | Print | Product List | Glossary Off
Versions: 1 2 3 4 5 6 7 8 9 10 11 12 13 14 15 16 17 18 19 20 21 22 23 24 25 26 27 28 29 30 31 32 33 34 35 36 37 38 39 40 41 42 43 44 45 46 47 48 49 50

000
ASUS44 KLZK 200705
RWRLZK

WEATHER ROUNDUP FOR ARKANSAS
NATIONAL WEATHER SERVICE LITTLE ROCK AR
200 AM CDT SAT SEP 20 2014

NOTE: "FAIR" INDICATES FEW OR NO CLOUDS BELOW 12,000 FEET WITH NO
SIGNIFICANT WEATHER AND/OR OBSTRUCTIONS TO VISIBILITY.

ARZ001-003-010-029-200800-
NORTHWEST ARKANSAS

CITY           SKY/WX    TMP DP  RH WIND       PRES   REMARKS
FAYETTEVILLE   CLEAR     62  62 100 CALM      30.02S FOG
FORT SMITH     CLEAR     70  67  90 NE6       29.98F
HARRISON       CLEAR     65  65 100 SE5       30.04R FOG
BENTONVILLE    CLEAR     66  63  88 CALM      30.03S
ROGERS         CLEAR     67  64  90 SE3       30.04R
SILOAM SPGS    CLEAR     66  61  82 SE3       30.03S
HIGHFILL       CLEAR     65  64  97 CALM      30.02S FOG
$$

ARZ004-005-016-200800-
NORTH CENTRAL ARKANSAS

CITY           SKY/WX    TMP DP  RH WIND       PRES   REMARKS
BATESVILLE     CLEAR     64  63  94 W3        30.01F
FLIPPIN        CLEAR     63  57  82 CALM      30.03R
MTN HOME       CLEAR     66  64  93 SE3       30.02S FOG
$$

ARZ040-041-200800-
WEST CENTRAL ARKANSAS

CITY           SKY/WX    TMP DP  RH WIND       PRES   REMARKS
MENA           CLOUDY    70  68  94 CALM      30.02F
MOUNT IDA      FOG       67  65  93 CALM      29.99S VSB 1/4
$$

ARZ009-017-025-026-028-200800-
NORTHEAST ARKANSAS

CITY           SKY/WX    TMP DP  RH WIND       PRES   REMARKS
CORNING          N/A     64  64 100 CALM      30.02S FOG
JONESBORO      CLEAR     66  65  96 CALM      30.01S
NEWPORT        CLEAR     67  66  96 CALM      30.02F
WALNUT RIDGE   CLEAR     64  63  94 CALM      30.01S
BLYTHEVILLE    CLEAR     68  66  93 SE3       30.02S
$$

ARZ022-023-033-042-044-200800-
CENTRAL ARKANSAS

CITY           SKY/WX    TMP DP  RH WIND       PRES   REMARKS
LITTLE ROCK    CLEAR     71  66  84 CALM      30.01S
N LITTLE ROCK    N/A     70  68  92 S2        30.01S
JACKSONVILLE   CLEAR     66  65  97 CALM      30.01S
SEARCY         CLEAR     65  65 100 CALM      30.02S FOG
HOT SPRINGS    CLEAR     68  66  93 E3        30.00F
RUSSELLVILLE   CLEAR     68  66  93 CALM      30.00F FOG
CLINTON        CLOUDY    64  64 100 CALM      30.03S FOG
$$

ARZ036-200800-
EAST ARKANSAS

CITY           SKY/WX    TMP DP  RH WIND       PRES   REMARKS
WEST MEMPHIS   CLEAR     70  70 100 CALM      30.00S
$$

ARZ050-053-066-070-073-200800-
SOUTHWEST ARKANSAS

CITY           SKY/WX    TMP DP  RH WIND       PRES   REMARKS
ARKADELPHIA    FAIR      69  69 100 CALM      30.00S FOG
CAMDEN         CLEAR     68  66  94 CALM      29.98S FOG
TEXARKANA      FOG       69  69 100 E3        29.99R VSB 1
EL DORADO      CLEAR     70  69  97 CALM      29.98F
DE QUEEN       FOG       68  68 100 CALM      29.97S VSB 1/4
$$

ARZ056-057-069-200800-
SOUTHEAST ARKANSAS

CITY           SKY/WX    TMP DP  RH WIND       PRES   REMARKS
PINE BLUFF     CLEAR     68  65  90 CALM      30.00S
STUTTGART      CLEAR     68  63  83 CALM      30.01S
MONTICELLO     CLEAR     69  67  93 CALM      29.99F

$$




USA.gov is the U.S. government's official web portal to all federal, state and local government web resources and services.